Location: Sungai Bunut
(2.6333°N, 113.7333°E)
Time: 13:07:27
(UTC+00:00)

Explorer 11/Cluster Stage 4 - Visible Passes

Search period start: 03 December 2023 00:00
Search period end: 13 December 2023 00:00
Orbit: 465 x 1227 km, 28.8° (Epoch: 03 December)

Date Brightness Start Highest point End Pass type
(mag) Time Alt. Az. Time Alt. Az. Time Alt. Az.
07 Dec 8.1 12:09:41 10° NW 12:10:57 18° NW 12:10:57 18° NW visible
08 Dec 6.5 11:53:35 10° NW 11:56:58 45° NNW 11:56:58 45° NNW visible
09 Dec 5.7 11:37:28 10° WNW 11:42:15 80° NNE 11:43:06 55° ESE visible
10 Dec 6.0 11:21:20 10° WNW 11:26:23 85° SSW 11:29:20 19° ESE visible
11 Dec 6.4 11:05:12 10° WNW 11:10:30 72° SSW 11:14:46 10° SE visible
12 Dec 6.8 10:49:03 10° WNW 10:54:34 62° SSW 10:58:59 10° SE visible
12 Dec 8.3 21:44:43 10° SW 21:49:53 39° SSE 21:56:09 10° E visible
